Location: Brienzwiler
(46.7508°N, 8.1014°E)
Time: 08:15:02
(UTC+00:00)

Cosmos 1844 - Pass Details

Date: 05 July 2020
Orbit: 822 x 868 km, 70.9° (Epoch: 05 August)

Event Time Altitude Azimuth Distance (km) Brightness Sun altitude
Rises 20:15:59 0° 334° (NNW) 3,461 8.5 -7.7°
Reaches altitude 10° 20:18:29 10° 337° (NNW) 2,517 7.5 -8.0°
Maximum altitude 20:24:16 69° 61° (ENE) 919 3.9 -8.6°
Enters shadow 20:29:41 11° 144° (SE) 2,377 5.4 -9.3°
